Location: Katowice
(50.2611°N, 19.0242°E)
Time: 05:17:39
(UTC+02:00)

Explorer 11/Cluster Stage 4 - Visible Passes

Search period start: 22 July 2019 00:00
Search period end: 01 August 2019 00:00
Orbit: 467 x 1260 km, 28.8° (Epoch: 20 July)

Date Brightness Start Highest point End Pass type
(mag) Time Alt. Az. Time Alt. Az. Time Alt. Az.
22 Jul 9.0 02:40:12 12° SSE 02:40:12 12° SSE 02:42:32 10° SSE visible
23 Jul 9.0 02:30:16 11° SSE 02:30:16 11° SSE 02:31:25 10° SSE visible
23 Jul 9.0 04:13:53 10° SSW 04:16:42 12° S 04:19:37 10° SSE visible
24 Jul 9.0 04:03:41 10° SSW 04:05:46 11° S 04:07:54 10° S visible
25 Jul 9.0 03:54:35 10° S 03:54:51 10° S 03:55:06 10° S visible
